User: anonymous   Login
Location: *
(6.0000°S, 32.3997°W)
Time: 17:33:07
(UTC+00:00)
Language:

Cosmos 1758 - Orbit

View from above orbital plane
View from above orbital plane
View from above satellite
View from above satellite

Ground track
Ground track

The orbit data is extracted from the following two-line orbital elements,

1 16791U 86046A   20196.45901921  .00000461  00000-0  30337-4 0  9998
2 16791  82.4697  17.0326 0015513 220.9923 139.0139 15.05071984854602
Epoch (UTC): 14 July 2020 11:00:59
Eccentricity: 0.0015513
inclination: 82.4697°
perigee height: 540 km
apogee height: 562 km
right ascension of ascending node: 17.0326°
argument of perigee: 220.9923°
revolutions per day: 15.05071984
mean anomaly at epoch: 139.0139°
orbit number at epoch: 85460

The dashed part of the orbit path shows where the satellite is in the earth's shadow,  

DLR